GFSNW_925_spd_177.txt.gz
Wind_Speed
10 9 11 19 20 19 17 7 2 1 14 2 2 4 3 3 1 3 1 2 5 7 5 8 7 7 4 5 2 6 3 1 7 5 5 4 2 1 1 3 7 4 1 8
11 10 9 13 21 27 13 3 2 3 2 3 2 2 1 1 1 2 2 2 1 3 1 4 5 6 5 7 7 4 4 4 5 11 3 2 3 2 2 2 2 4 3 7
10 10 9 9 15 27 15 3 1 2 3 1 3 3 2 3 4 6 6 5 2 7 7 5 4 9 6 8 4 8 5 5 8 8 14 8 13 19 11 3 5 9 14 20
9 9 8 9 17 24 11 3 2 1 4 5 5 3 3 4 4 5 6 2 7 5 3 3 7 7 11 5 3 3 1 6 6 11 18 15 18 22 20 16 15 12 23 20
11 10 8 8 8 16 4 3 2 2 2 2 12 8 5 8 6 4 4 8 6 5 5 5 14 12 9 11 12 7 3 7 8 14 18 16 15 20 22 20 19 18 22 26
11 10 10 9 9 8 2 3 2 2 2 3 4 4 5 4 3 6 12 10 7 7 13 11 6 7 7 12 12 8 5 4 6 17 15 14 12 19 18 20 20 16 19 20
10 9 10 10 9 12 3 2 3 2 2 4 5 3 7 10 10 11 11 8 7 3 2 5 5 8 12 13 13 12 11 6 6 12 11 13 8 6 10 11 13 12 16 15
11 9 9 9 9 9 8 2 2 2 2 4 6 8 6 7 7 11 12 13 16 9 4 3 5 3 3 7 14 15 13 7 3 3 4 12 13 12 10 12 18 12 16 14
12 11 10 10 9 9 8 7 1 3 1 5 7 6 9 9 7 5 7 11 7 5 3 3 4 5 2 3 5 3 10 7 5 3 6 6 1 4 2 2 10 2 2 1
14 13 11 10 10 9 8 4 8 3 2 4 2 4 4 3 3 2 3 4 1 4 4 5 5 3 4 4 3 4 3 3 11 10 8 7 5 9 3 8 3 3 1 5
13 12 10 8 9 11 12 6 10 9 3 5 6 3 5 8 2 4 1 4 2 2 5 4 3 3 4 3 7 6 8 6 5 4 4 8 6 5 5 4 9 9 10 9
13 12 11 10 9 12 13 6 11 13 5 4 10 14 15 13 11 5 3 4 4 3 3 3 2 3 3 6 4 4 6 8 3 6 3 2 5 7 13 9 11 10 11 13
14 14 13 11 11 12 15 11 11 6 4 5 8 10 30 34 31 27 7 3 4 3 3 2 2 6 3 4 5 5 4 2 5 2 7 10 10 12 12 7 9 10 15 14
15 14 13 12 11 13 15 17 15 10 2 3 4 7 10 19 26 31 31 21 8 4 3 4 3 3 3 3 5 5 4 4 4 6 9 11 14 10 13 12 9 12 15 13
15 14 13 13 12 13 15 18 16 17 5 3 5 21 34 27 29 27 26 21 12 2 3 3 5 3 3 3 2 5 6 6 5 6 8 9 9 7 3 6 14 12 9 8
16 15 14 13 13 13 11 1 17 21 16 2 4 5 7 14 14 17 16 16 4 2 2 3 2 3 4 4 4 4 8 10 13 12 9 11 9 8 9 8 8 7 7 7
15 15 13 13 13 18 7 4 1 11 19 2 4 4 3 2 3 4 3 3 2 3 2 3 3 3 4 3 11 10 8 9 10 10 5 10 8 7 7 6 9 9 8 7
13 13 12 13 13 16 16 18 7 10 6 4 3 4 3 5 2 2 2 3 3 3 1 1 3 1 3 5 6 6 10 13 13 16 12 15 12 10 10 6 4 7 5 5
11 9 9 7 8 8 8 18 22 15 6 3 4 3 3 2 2 2 2 3 3 2 3 3 4 4 6 10 8 9 9 6 8 4 4 6 5 4 2 3 4 5 5 5
14 11 4 3 7 7 10 8 4 5 4 4 4 2 3 1 1 2 1 0 3 3 5 2 4 7 16 11 11 12 9 9 9 6 6 3 1 2 3 4 5 5 5 2
10 4 4 4 9 10 4 4 6 5 5 5 5 8 3 3 1 2 2 1 2 3 4 5 3 4 3 2 4 6 3 2 4 4 6 4 2 3 5 7 6 7 6 4
9 5 2 6 4 3 5 4 3 5 6 5 5 4 3 2 3 1 2 2 2 6 2 3 3 3 4 4 3 5 6 7 8 8 5 5 5 5 5 5 6 7 8 5
3 2 2 2 3 5 6 6 4 3 3 4 4 3 3 2 2 2 2 4 5 2 3 4 4 3 4 4 4 5 5 6 6 7 8 7 5 6 7 6 7 6 4 6
2 4 5 4 4 5 5 3 2 1 2 6 3 2 2 2 3 2 4 4 3 4 4 5 1 5 5 4 3 4 5 6 6 5 5 5 6 7 11 11 10 7 10 9
3 3 4 5 2 0 1 2 1 1 4 5 2 2 2 2 3 4 4 3 5 6 4 1 2 6 6 5 4 5 6 6 5 6 6 6 7 7 10 15 14 13 14 14
3 3 1 1 1 1 2 2 1 1 2 1 1 2 2 5 4 7 6 4 6 3 1 2 4 5 4 5 5 5 6 7 7 7 8 9 8 8 8 15 18 17 16 16
3 3 1 1 1 2 2 2 3 3 2 2 2 4 8 1 3 4 4 4 2 2 2 3 4 5 5 5 5 5 8 7 7 9 11 10 9 10 12 10 12 15 17 17

GFSNW_925_spd_180.txt.gz
Wind_Speed
11 11 13 19 20 20 16 6 4 4 12 4 4 8 11 1 5 2 3 3 7 11 12 15 16 14 12 5 14 12 9 7 12 14 11 9 10 9 9 8 7 5 7 8
12 11 11 12 22 26 13 3 2 2 5 6 9 7 10 5 7 5 3 4 7 4 8 6 10 8 0 3 7 4 4 8 11 13 11 7 5 1 6 10 8 16 12 8
13 13 11 10 19 28 15 3 2 2 4 4 9 12 12 11 6 9 9 8 6 9 11 11 8 8 5 12 16 11 8 14 15 12 15 11 15 18 18 12 10 14 17 17
13 13 13 13 14 30 10 3 3 3 4 7 10 9 3 11 7 7 4 5 13 9 7 8 11 10 8 11 12 7 4 13 14 15 16 13 17 21 19 19 21 20 23 23
12 11 12 12 12 21 5 3 3 2 1 8 14 7 9 11 7 5 8 11 7 8 11 9 12 14 12 10 9 14 12 13 13 16 18 18 20 22 25 25 22 23 27 31
14 13 12 12 12 16 5 1 3 2 6 5 6 6 9 7 7 7 13 10 8 10 11 12 11 11 12 14 14 14 13 13 13 19 20 18 17 23 24 25 24 24 24 25
12 11 12 11 11 11 4 5 4 3 4 7 8 6 11 13 12 12 9 8 10 3 3 12 15 16 18 20 20 17 17 15 11 15 16 16 17 10 14 18 22 18 19 21
14 12 11 11 9 9 2 3 2 3 4 7 10 10 11 7 8 11 12 14 14 11 10 7 7 9 10 15 23 21 20 16 11 8 13 16 18 12 12 16 17 14 17 18
14 12 10 10 10 8 6 3 3 1 2 5 9 7 8 10 10 11 13 12 12 8 5 4 6 7 8 5 4 6 9 10 8 4 6 11 2 4 8 7 14 8 8 8
12 11 10 9 9 8 6 3 5 2 3 4 3 3 3 4 4 5 4 3 3 9 6 6 8 12 8 8 9 6 4 5 12 11 9 9 3 4 5 10 6 11 11 11
11 10 8 7 9 10 8 2 6 6 3 7 6 4 8 8 4 2 2 5 5 3 6 5 7 7 8 6 10 5 8 7 7 9 14 14 4 1 5 8 13 13 13 9
10 9 8 7 8 11 11 5 6 6 6 4 5 9 16 19 16 8 5 4 4 2 3 4 4 7 4 9 11 9 8 10 8 6 6 1 3 9 9 11 12 14 13 14
11 10 8 7 9 11 13 7 8 4 3 8 13 12 19 22 23 19 6 3 6 4 3 2 3 7 5 8 9 13 7 9 7 5 9 13 15 14 14 10 11 11 8 11
11 10 9 8 8 10 13 10 9 8 3 4 3 3 10 7 10 20 27 23 18 11 6 3 4 6 8 8 11 9 8 4 8 11 17 12 15 14 9 10 11 11 13 17
12 10 9 7 6 7 9 8 8 12 6 3 6 18 29 25 27 26 24 24 17 11 9 4 4 4 6 9 8 10 12 15 10 9 10 9 15 12 11 10 10 12 10 10
12 10 8 7 6 8 5 2 12 14 9 3 4 8 12 21 21 20 17 19 12 9 4 3 3 4 4 4 7 12 16 17 18 16 15 14 17 14 14 16 13 11 10 9
11 10 9 8 8 12 4 1 2 8 10 2 4 4 3 6 5 5 7 14 5 5 2 4 5 6 6 5 14 17 16 16 16 16 16 18 17 13 12 10 12 12 11 9
11 10 8 7 8 9 11 8 3 13 4 4 3 4 6 7 3 3 3 3 2 3 4 3 5 4 4 6 13 16 18 17 16 17 15 17 14 14 13 11 9 7 7 5
11 8 7 6 5 5 5 9 10 9 5 3 4 4 8 1 4 2 2 3 4 3 3 3 4 6 7 15 13 12 10 11 12 11 8 7 8 10 5 4 5 6 6 5
13 11 4 3 7 7 10 5 4 4 4 4 6 5 7 3 1 2 2 2 2 3 5 2 4 9 20 18 18 16 15 15 15 16 14 13 11 6 3 3 3 5 5 5
7 3 4 2 12 8 3 4 6 5 4 5 7 14 14 6 5 3 4 1 1 3 3 4 4 7 11 7 5 3 4 6 8 9 4 2 1 1 3 4 4 5 5 4
9 6 4 4 3 4 6 5 5 7 6 6 7 8 8 4 4 4 2 2 3 5 1 3 4 5 8 5 2 2 3 3 5 4 4 4 4 4 4 5 5 5 6 4
5 3 2 4 6 8 7 9 5 5 3 4 5 4 5 4 5 3 3 5 4 2 4 4 6 4 3 4 5 4 3 4 5 5 5 5 5 5 5 4 4 3 2 4
2 5 5 5 5 6 5 7 4 2 2 5 6 4 3 2 4 2 4 3 3 4 5 6 3 1 4 4 4 4 3 4 5 5 5 5 5 6 6 6 6 6 7 7
2 4 5 8 3 3 3 1 1 4 5 7 3 2 2 3 2 3 3 4 5 5 5 2 1 4 4 5 5 5 4 4 4 5 5 6 6 8 10 10 10 9 10 11
3 5 5 2 3 3 3 4 3 3 6 2 2 3 4 5 4 7 8 4 6 3 2 1 3 5 4 5 5 5 5 6 6 7 7 7 7 9 10 11 13 12 12 13
5 5 3 3 4 4 3 5 5 6 3 4 3 4 7 1 4 5 5 5 5 1 2 3 4 5 5 5 6 5 8 7 9 10 9 9 9 9 10 9 10 11 11 12

GFSNW_925_spd_186.txt.gz
Wind_Speed
23 23 23 22 20 17 14 3 4 7 9 5 6 11 14 11 16 6 8 10 14 17 18 16 18 20 15 8 13 13 14 8 15 21 23 21 20 20 17 11 18 13 10 6
25 24 25 24 22 23 10 2 4 4 8 6 9 14 17 19 19 19 15 14 13 15 16 17 15 17 16 16 8 3 5 5 9 13 13 18 14 14 8 14 15 13 11 7
25 24 24 25 25 25 9 3 3 1 5 9 12 13 17 19 17 16 14 17 16 12 14 14 11 14 10 7 6 8 2 9 13 12 17 18 20 21 17 15 13 12 11 15
21 19 19 21 25 27 11 1 2 3 4 7 14 15 11 11 16 5 9 11 19 16 17 18 19 19 19 15 13 12 10 18 19 22 25 24 23 24 24 19 19 20 15 20
20 18 16 17 19 26 8 4 2 3 5 9 15 14 18 21 19 14 14 18 17 19 20 20 19 15 11 9 8 8 12 12 21 21 22 21 23 27 25 24 21 21 19 20
17 16 15 15 17 22 4 4 2 2 2 7 9 12 18 18 18 16 13 16 14 15 10 9 10 11 12 11 13 15 13 10 7 13 19 19 17 18 21 22 21 20 16 15
17 14 13 13 15 19 6 4 3 3 3 4 6 10 14 19 21 15 8 10 12 8 4 7 13 13 17 17 17 16 17 17 12 13 16 17 15 16 21 21 22 16 16 14
15 13 12 11 13 16 6 7 5 2 3 8 11 9 8 7 8 6 10 6 12 7 11 6 8 11 17 22 23 22 20 19 13 13 14 18 28 21 19 11 14 17 10 11
15 13 12 11 10 11 11 8 7 2 1 2 3 4 2 4 2 7 10 13 13 7 6 5 9 8 14 12 15 19 15 16 11 12 13 16 14 2 3 3 10 8 7 8
15 14 13 11 9 8 8 3 7 2 1 4 6 4 4 6 7 6 9 6 8 6 6 7 11 14 17 14 20 17 10 8 12 12 11 5 13 4 9 6 2 6 9 10
16 14 12 10 8 8 4 6 2 6 4 5 5 8 7 6 2 4 3 5 5 4 5 3 6 7 10 15 17 17 13 8 6 5 8 11 10 2 7 4 5 9 10 9
16 13 11 9 8 9 4 2 2 2 5 1 6 9 11 13 12 6 4 7 7 3 2 3 4 3 2 6 5 6 4 4 5 6 4 5 4 11 18 11 11 9 9 9
15 12 11 9 9 10 8 4 5 2 2 6 11 11 18 19 18 12 5 6 7 5 2 2 2 5 5 6 6 9 8 11 5 12 5 13 13 14 13 11 9 13 11 11
15 13 12 9 7 7 7 4 2 4 5 3 6 9 9 10 13 18 20 16 16 10 4 3 3 5 3 7 11 13 11 15 7 7 14 13 18 9 12 17 10 10 11 12
14 12 10 8 8 8 7 6 6 7 5 3 8 17 21 18 17 17 18 17 11 7 7 6 7 8 8 9 12 14 11 16 10 13 12 14 15 12 16 13 22 14 11 11
14 12 10 9 8 8 5 2 9 9 9 3 3 7 12 12 15 17 19 16 10 9 7 5 6 14 8 6 9 18 15 17 3 8 18 15 15 14 18 15 15 14 10 10
13 11 10 9 8 7 4 1 1 2 5 2 4 4 3 11 12 10 10 15 8 8 9 8 10 10 4 7 16 17 18 20 21 21 16 17 18 15 14 15 14 9 11 11
13 10 9 7 6 7 8 11 4 3 4 4 4 5 7 10 8 7 4 7 9 9 7 4 7 6 7 8 18 17 19 20 19 15 15 15 13 14 14 14 13 12 8 6
15 10 8 5 4 3 6 3 5 6 4 3 3 5 7 4 3 4 2 3 3 2 5 5 5 6 8 13 17 19 19 17 13 14 14 15 13 15 15 13 12 8 7 6
16 13 5 2 5 6 2 1 2 3 3 4 7 9 11 7 5 3 2 2 3 4 7 5 5 10 19 20 20 17 17 17 9 10 10 12 16 15 14 13 6 2 7 4
10 5 3 3 6 6 3 3 4 4 4 5 7 12 11 9 9 6 3 3 4 4 4 3 4 4 8 11 16 4 9 7 7 8 8 9 12 10 9 8 9 7 7 9
7 3 4 5 3 4 4 4 4 6 5 5 8 8 9 6 5 4 3 3 3 6 2 3 3 4 6 6 9 9 9 8 8 9 9 8 9 11 9 9 8 9 7 7
5 1 2 2 4 6 6 6 5 4 4 2 4 5 3 3 3 3 3 6 4 4 2 3 3 7 6 7 6 5 5 5 5 4 5 7 7 8 7 4 7 6 9 9
2 4 4 5 5 5 5 6 7 6 6 6 3 3 1 3 5 4 4 4 3 3 3 4 1 7 6 5 4 3 4 4 2 4 5 4 4 6 8 8 9 10 11 12
3 3 4 7 5 4 5 6 6 8 6 5 3 4 3 4 4 3 4 3 4 4 4 3 5 5 3 3 3 2 2 0 1 3 3 4 5 7 8 12 13 13 14 14
3 5 5 5 4 4 5 8 9 5 2 2 2 2 4 5 3 5 6 3 4 1 4 5 4 4 5 5 2 4 3 2 2 5 5 5 6 7 9 10 12 13 13 13
4 4 5 6 7 6 7 6 4 5 2 2 4 3 5 3 4 4 3 3 5 6 6 6 7 6 4 2 3 2 2 3 4 5 7 6 6 8 8 7 10 13 14 15

GFSNW_925_spd_192.txt.gz
Wind_Speed
59 54 49 47 46 41 27 7 4 19 23 4 3 4 5 2 6 0 4 6 3 2 1 3 4 6 1 10 4 6 3 4 5 7 4 3 5 11 8 3 7 3 2 6
56 54 51 50 46 42 23 5 3 11 6 6 6 5 4 1 1 4 2 6 2 3 4 4 8 8 2 3 6 4 5 3 5 9 1 3 3 2 2 5 4 2 4 5
58 54 52 47 44 41 19 4 4 1 3 2 8 6 4 5 6 11 10 11 5 3 5 6 5 2 2 7 8 6 3 5 6 11 10 1 6 15 17 12 7 13 13 11
54 52 46 47 44 35 14 2 4 4 5 6 6 7 4 10 8 6 4 3 6 5 6 8 11 8 7 4 3 3 2 12 10 15 12 10 12 20 11 13 16 16 17 13
45 47 43 42 45 37 7 4 4 2 3 6 8 11 9 11 10 6 10 7 6 8 9 9 13 9 3 4 2 3 2 5 2 11 10 11 16 18 14 18 20 18 15 18
44 44 43 43 45 26 7 5 3 5 4 5 6 5 9 6 2 6 12 8 3 8 11 2 4 6 5 5 2 3 2 0 2 6 6 8 12 10 13 14 17 11 12 15
37 34 34 35 39 21 13 5 5 4 3 4 5 6 7 4 2 5 5 5 3 1 5 4 5 6 9 9 11 7 7 6 3 3 2 12 12 7 9 13 16 7 11 5
35 32 30 28 31 21 20 12 5 3 3 5 4 4 2 1 2 3 3 5 4 4 4 1 3 4 4 8 16 15 15 11 5 6 12 15 22 13 15 9 15 4 4 4
34 31 29 26 22 18 23 19 14 4 4 5 3 4 4 3 2 2 2 2 2 5 1 2 4 5 2 3 4 10 15 10 7 5 6 10 2 4 3 3 8 4 5 8
29 27 26 25 24 21 22 11 13 7 2 1 4 3 4 4 3 1 2 2 1 4 2 4 4 4 2 4 3 3 2 1 9 10 8 6 6 8 4 4 4 4 6 10
30 26 25 24 23 23 17 15 11 7 3 1 4 3 4 4 4 4 3 3 3 1 2 2 2 3 1 4 3 3 3 4 4 3 6 9 2 2 3 1 8 12 8 10
28 26 23 22 21 20 21 10 12 4 3 4 1 6 5 4 7 5 3 5 5 3 1 2 2 2 2 4 3 2 2 1 4 2 4 8 16 6 7 9 13 12 7 8
28 26 23 21 22 19 13 15 13 7 3 3 2 6 12 14 18 13 4 3 4 3 4 2 3 4 3 3 4 3 3 6 4 2 3 10 9 10 9 5 5 9 10 7
25 23 21 19 18 17 18 13 9 5 4 3 4 4 9 7 14 21 18 8 2 4 2 2 3 3 3 3 7 8 5 3 4 7 12 12 12 9 6 9 8 10 10 5
23 21 20 18 17 17 17 14 10 7 5 3 4 14 19 18 18 11 19 15 4 2 1 1 3 3 2 5 7 12 6 13 7 10 9 5 14 6 13 11 9 11 9 5
23 21 20 18 16 14 8 4 4 4 3 3 2 5 5 9 9 14 9 11 4 4 4 3 3 4 3 4 10 8 10 12 16 18 12 9 14 13 17 16 16 12 9 9
21 19 17 16 15 10 5 3 4 4 3 3 3 4 4 2 5 2 3 7 4 4 3 4 6 6 5 5 17 15 12 15 18 20 17 15 17 10 12 16 13 9 7 5
19 17 15 13 11 7 5 6 6 5 4 3 0 4 4 1 1 2 2 2 2 3 4 1 5 2 4 7 18 12 12 12 14 17 13 15 15 10 5 6 5 4 4 6
18 18 15 9 4 2 2 7 7 2 2 2 2 2 3 3 1 1 3 2 2 2 3 4 4 4 7 9 6 9 10 8 13 12 11 6 4 3 4 5 6 2 5 6
18 7 5 3 2 7 9 2 2 3 2 2 3 1 3 3 1 3 1 1 2 2 4 2 4 6 17 17 15 15 14 7 4 6 4 4 2 4 6 6 6 5 4 2
3 2 1 2 6 2 3 2 2 1 2 3 3 5 3 2 2 4 2 2 2 2 3 4 3 3 2 7 7 6 9 7 6 5 3 3 3 4 4 4 5 5 4 4
7 10 6 3 3 3 3 2 2 2 3 2 2 1 1 4 3 2 2 3 2 5 3 3 2 2 3 5 5 5 6 6 6 6 4 3 3 4 4 4 4 5 4 1
6 4 3 3 2 2 4 3 3 2 2 1 1 2 2 3 2 2 2 3 5 2 0 2 1 2 4 3 3 5 4 4 2 2 2 3 2 2 2 2 2 3 6 6
3 3 3 4 2 4 4 3 2 3 2 3 3 4 3 2 3 3 4 5 1 3 1 1 1 2 2 4 3 1 2 1 4 4 2 1 1 3 5 6 6 9 8 11
2 3 3 5 4 3 3 3 1 2 8 10 5 4 3 2 3 3 2 3 4 3 1 1 3 4 3 2 3 4 4 2 2 2 2 2 2 3 3 7 10 12 12 12
0 3 1 3 2 4 2 2 4 2 3 2 1 3 3 4 3 2 6 3 1 1 2 2 4 6 6 7 6 5 3 3 3 3 5 4 5 4 5 7 10 12 14 15
2 3 2 3 2 5 4 3 3 2 2 2 2 2 1 2 2 3 0 3 2 3 4 5 6 8 10 9 9 4 5 5 5 5 7 6 8 11 8 5 9 13 16 17

GFSNW_925_spd_195.txt.gz
Wind_Speed
54 52 49 45 47 49 35 7 5 27 31 4 3 6 7 7 5 3 0 3 3 4 5 4 3 6 5 3 2 3 3 3 5 8 6 7 6 6 6 4 9 3 2 7
55 53 51 50 52 57 24 7 2 18 28 8 5 4 10 4 5 4 4 5 2 2 3 3 6 4 1 6 3 3 4 3 6 9 3 5 3 3 3 2 2 3 1 6
54 56 54 58 61 59 32 5 4 1 5 3 10 11 10 8 11 7 4 4 3 6 6 5 3 2 2 4 2 6 4 4 6 12 12 5 17 19 12 3 4 12 16 19
55 59 62 67 73 51 27 3 4 5 9 11 14 14 11 10 7 8 6 7 13 8 7 6 9 5 2 2 3 3 6 13 10 17 17 17 20 19 5 10 15 12 17 20
61 66 72 72 65 47 7 6 5 3 7 14 12 13 9 9 13 8 9 9 1 5 6 6 4 5 3 5 4 5 4 10 4 21 14 15 19 17 8 12 15 15 18 21
64 67 67 64 49 34 6 4 4 6 7 9 9 9 10 14 8 6 8 7 5 6 6 3 3 5 3 5 3 6 5 3 2 19 6 9 12 12 13 12 14 11 13 15
60 59 56 46 39 20 14 7 6 3 4 5 5 11 9 12 12 6 2 4 4 2 1 4 4 4 9 10 14 10 8 8 5 11 6 10 6 3 5 10 16 9 12 12
52 45 47 38 32 15 27 14 6 2 4 6 9 11 7 8 4 3 3 2 1 5 3 1 4 3 4 9 15 17 17 11 6 6 5 5 12 6 3 4 20 4 5 1
44 40 41 39 31 25 23 18 12 4 5 4 7 8 4 3 3 3 2 2 7 4 2 2 4 4 2 4 6 3 13 13 9 3 3 4 4 1 7 3 10 3 3 4
46 41 42 34 25 22 24 8 11 6 3 1 6 4 5 4 3 3 2 4 2 3 3 2 3 3 3 5 5 4 2 3 12 10 8 6 8 13 7 5 4 2 3 7
38 31 25 23 23 25 24 12 6 5 3 2 2 4 6 4 3 4 4 3 2 2 3 3 3 3 1 3 4 4 4 3 4 4 6 10 9 9 5 8 5 6 8 12
35 33 34 34 29 22 24 8 11 11 5 3 2 2 4 6 9 5 2 3 4 3 3 1 1 2 2 2 2 5 4 3 2 2 4 5 7 8 15 15 13 10 6 12
33 31 29 27 24 21 15 16 11 7 3 4 3 1 4 8 7 6 4 2 3 3 4 3 3 4 2 3 5 4 4 3 4 1 5 10 11 13 16 16 12 12 7 14
35 33 31 26 23 19 21 15 10 10 3 3 3 4 3 2 7 12 8 5 3 4 2 2 3 3 5 4 6 8 5 3 4 10 11 12 13 11 9 12 8 12 14 15
31 32 30 29 27 26 25 23 16 12 5 3 2 9 5 7 9 8 12 11 4 2 2 2 3 2 2 7 5 12 4 9 8 15 15 10 13 11 16 13 17 14 15 15
30 30 29 28 26 23 10 4 9 8 6 3 2 3 3 4 4 9 8 8 3 3 4 3 3 4 2 3 5 6 11 15 17 18 15 14 14 14 14 20 23 18 14 14
30 28 24 19 14 9 6 4 7 7 4 3 3 4 3 3 2 1 2 5 3 3 3 2 4 4 4 5 15 25 14 14 14 15 15 18 20 14 14 13 18 20 15 12
28 26 24 23 23 16 11 12 9 5 8 3 2 2 4 3 2 2 1 2 1 2 3 1 4 2 4 7 14 10 11 14 17 18 16 15 18 16 13 10 8 9 7 6
26 24 21 11 8 5 4 9 6 9 6 3 1 2 3 4 2 1 2 2 1 1 2 3 4 3 7 13 8 7 8 6 8 9 8 9 11 8 5 5 6 6 7 4
19 7 8 3 4 12 6 3 3 4 3 2 1 1 2 2 2 3 2 1 2 2 4 2 3 4 12 11 12 9 6 8 8 6 6 3 3 3 4 4 4 5 5 4
5 3 2 5 5 3 3 3 3 2 2 1 2 4 2 1 2 3 3 2 2 2 4 4 3 3 2 2 7 7 8 8 8 6 4 4 5 6 8 9 9 7 6 4
6 14 9 3 4 3 4 1 1 1 2 1 3 3 3 2 2 1 2 3 1 5 1 2 3 0 4 1 4 6 6 7 7 7 7 7 7 6 6 7 8 9 9 9
5 5 4 3 1 4 4 2 1 1 2 1 1 1 1 2 3 3 2 3 5 2 2 3 1 1 3 5 3 3 4 4 4 6 8 8 8 9 7 6 9 9 6 4
3 3 3 3 2 3 4 3 3 3 2 1 4 4 3 3 3 3 4 4 2 2 2 2 3 6 5 4 4 3 4 3 3 3 3 5 6 5 8 7 7 4 1 5
2 3 2 4 3 2 3 2 2 2 2 3 3 3 3 3 4 3 2 2 4 4 1 2 3 6 6 7 8 8 6 4 4 3 3 4 6 5 5 4 2 4 7 9
1 2 2 2 2 3 2 1 3 2 1 2 2 2 3 5 3 3 5 3 1 2 2 3 5 7 6 7 9 9 8 5 4 5 6 6 6 5 5 2 1 4 8 10
1 3 1 3 1 4 4 3 3 3 1 2 2 3 2 2 3 4 1 2 1 3 3 3 5 9 9 8 10 9 8 6 7 8 8 8 9 8 6 2 2 7 10 12

GFSNW_925_spd_198.txt.gz
Wind_Speed
42 43 44 44 43 37 33 6 4 29 38 6 5 5 7 5 12 3 2 2 3 6 7 4 4 6 2 3 2 3 1 2 4 8 5 2 1 3 3 3 7 2 2 16
44 41 38 37 35 32 15 5 2 19 15 10 6 2 2 5 9 9 8 6 4 1 4 1 4 4 3 4 4 3 3 1 5 7 3 4 4 1 2 2 1 3 4 8
45 44 43 40 40 38 24 5 4 1 2 0 14 8 7 7 5 5 3 4 3 1 3 1 1 3 2 1 4 7 6 4 5 11 8 8 18 17 13 12 9 15 21 20
46 47 44 43 48 46 27 3 4 6 7 12 6 12 11 10 8 9 12 6 9 8 5 5 10 9 0 3 2 4 5 6 9 16 16 13 20 17 12 16 17 17 21 21
50 48 48 50 52 49 17 6 5 4 2 14 18 15 12 19 7 11 7 6 13 14 7 7 3 3 0 5 4 5 3 6 5 17 9 12 22 17 12 17 19 18 18 22
54 50 51 55 60 53 5 4 4 5 9 12 14 14 12 13 13 7 6 14 5 5 9 6 2 5 5 4 5 6 5 3 2 17 4 8 15 11 14 11 14 8 13 19
50 51 52 57 66 67 21 8 6 3 4 11 15 13 5 13 11 5 4 10 6 4 6 4 2 4 8 10 11 9 6 7 5 11 5 14 4 3 6 7 11 12 8 14
48 49 52 60 69 58 21 17 6 3 4 5 10 13 8 11 12 4 5 3 2 4 3 2 1 2 2 7 12 12 13 8 5 5 9 13 14 2 2 1 8 4 8 6
48 48 52 51 43 35 34 24 19 4 6 2 9 5 12 5 3 3 2 3 3 3 2 2 4 4 1 2 4 5 9 10 6 4 5 10 2 4 6 5 10 7 6 6
60 62 58 51 47 38 29 16 19 7 3 3 9 3 5 6 4 3 4 4 2 2 2 2 3 3 2 3 3 4 4 4 12 11 11 6 1 6 4 2 5 14 11 13
62 59 55 49 45 39 36 18 16 7 3 4 4 4 5 4 3 4 5 4 1 2 3 3 2 3 1 2 2 1 3 4 4 5 7 8 3 1 2 4 3 7 15 14
50 45 41 40 38 30 32 13 14 13 5 4 5 6 7 3 7 5 2 3 3 3 3 1 2 2 1 1 2 2 3 3 2 2 4 4 1 6 7 5 9 11 11 12
49 46 43 38 30 27 25 24 15 11 3 3 3 3 5 9 6 7 4 0 4 3 2 3 2 2 3 2 4 3 4 4 3 3 5 6 10 10 12 10 12 13 9 13
44 43 39 34 29 26 30 16 13 12 4 4 1 2 5 4 6 5 7 9 6 5 3 2 3 2 4 3 5 6 5 3 3 11 15 12 15 10 8 12 10 12 10 10
39 37 34 30 31 33 32 29 20 11 3 4 3 2 3 3 6 8 8 10 4 2 2 2 3 2 0 3 3 12 5 15 8 14 14 10 14 11 12 10 17 15 14 17
41 41 39 36 33 31 15 4 13 14 7 4 3 3 4 6 4 8 5 5 3 3 4 3 2 3 4 3 4 5 8 11 15 17 19 16 14 11 14 14 17 17 17 14
41 38 32 22 13 15 7 4 6 9 7 3 3 2 3 3 4 2 3 2 2 3 2 2 4 4 5 4 13 21 13 13 15 16 11 10 14 12 14 11 14 16 15 16
36 34 35 31 26 19 19 20 13 9 10 3 3 1 3 6 2 2 1 2 1 1 3 0 3 1 3 5 14 14 10 9 12 15 16 15 16 16 15 14 9 8 7 8
35 29 23 16 13 6 5 11 13 17 9 3 2 3 2 4 2 1 3 2 0 1 2 3 4 2 5 10 4 6 7 6 7 8 8 8 9 12 6 6 6 7 9 10
21 9 8 4 5 10 3 4 4 5 4 4 3 1 1 2 3 2 2 1 1 2 4 2 3 4 11 7 3 3 4 5 6 5 4 3 3 5 5 7 8 7 8 8
7 3 3 7 3 3 3 3 4 2 3 1 1 2 1 2 2 2 2 2 2 2 3 3 2 3 2 2 3 5 7 7 8 8 8 8 9 9 9 10 9 9 9 7
9 16 8 4 4 3 6 2 1 3 2 1 3 2 3 1 2 1 1 2 1 5 1 2 2 2 3 4 3 5 4 4 6 6 7 8 9 9 8 8 9 10 12 13
6 5 4 3 2 7 4 1 2 2 1 1 2 1 2 1 2 2 2 2 5 2 2 3 2 3 4 5 5 5 6 5 5 5 3 4 6 8 7 7 11 13 12 13
3 4 5 3 3 1 3 3 3 3 3 4 2 3 2 2 2 2 2 4 2 2 3 3 2 5 6 7 7 8 9 10 8 5 5 4 4 5 10 9 12 11 8 9
3 4 2 2 2 0 1 1 1 2 2 2 1 1 1 2 2 3 4 4 4 4 0 2 3 6 8 8 9 11 10 9 9 7 4 5 7 5 6 9 10 8 4 4
2 3 3 1 3 3 3 1 2 2 2 1 2 2 2 3 2 3 4 2 3 0 2 1 2 5 5 8 6 8 9 8 8 9 9 10 8 6 6 6 6 4 1 5
2 1 2 3 2 4 3 3 3 3 1 2 1 2 4 2 3 3 1 0 1 1 3 1 3 6 8 8 6 7 12 11 12 13 15 12 11 8 5 2 1 1 3 7

GFSNW_925_spd_201.txt.gz
Wind_Speed
41 41 37 36 33 39 32 6 3 26 41 5 3 8 5 1 4 2 3 4 8 10 11 8 9 10 3 7 5 5 3 3 5 6 3 2 2 5 3 5 7 2 3 17
39 37 36 34 32 38 15 6 3 18 14 6 6 4 3 3 6 7 8 7 5 0 6 3 5 6 1 7 5 8 6 2 5 3 3 2 3 4 4 3 2 10 8 10
43 44 36 34 33 37 24 4 5 1 2 2 11 10 7 7 2 3 4 3 4 4 7 2 6 6 1 3 3 5 5 6 9 10 5 3 12 17 16 9 7 14 19 25
44 41 42 37 36 42 26 3 3 7 7 10 5 13 11 12 11 9 7 5 13 17 8 6 5 4 1 5 5 4 3 5 9 13 13 16 18 19 14 17 20 17 26 23
43 42 43 41 40 44 20 5 5 3 4 13 16 11 12 17 13 12 7 12 10 10 8 8 7 7 5 4 4 5 1 4 8 16 13 16 22 16 17 19 22 19 24 25
45 45 44 45 45 49 4 5 4 6 9 9 11 16 20 15 13 6 6 11 9 9 9 8 5 1 3 4 5 10 6 3 3 6 11 11 12 14 19 16 16 13 15 17
46 44 45 48 51 57 14 8 6 4 5 11 15 11 18 17 19 9 5 12 6 6 8 6 2 6 10 13 14 10 7 9 4 6 7 8 3 3 5 11 15 12 10 13
46 47 47 47 52 59 24 20 8 4 3 10 7 12 8 12 10 4 6 4 7 10 6 3 3 3 3 10 17 14 12 8 4 4 8 13 14 6 3 2 6 9 7 11
46 47 49 50 52 58 35 26 20 4 7 10 10 12 18 7 6 4 4 7 11 7 2 2 4 4 2 3 2 6 11 10 7 5 5 7 2 5 2 3 9 6 6 9
47 48 49 47 52 53 33 12 19 8 4 1 13 6 12 7 5 5 5 7 4 1 3 3 3 4 3 4 5 6 5 4 12 10 8 8 2 3 2 5 6 9 5 7
47 48 50 47 51 50 33 16 15 10 3 3 6 6 6 6 4 5 6 4 1 2 3 3 3 3 3 1 2 4 7 6 5 7 7 13 5 3 3 6 11 14 12 8
48 46 43 50 49 45 40 14 25 24 7 4 9 11 10 9 5 6 3 2 4 3 4 2 3 2 3 4 3 1 4 4 2 4 4 2 8 7 12 11 14 16 14 12
52 60 56 54 50 39 36 33 30 20 5 4 4 6 9 13 10 14 4 1 4 4 2 3 2 2 3 4 5 4 3 5 4 3 7 13 13 9 10 14 16 13 14 13
62 57 53 51 46 48 45 28 17 15 5 4 3 4 6 7 10 14 9 11 7 5 2 2 2 2 4 3 4 5 4 3 8 14 17 15 17 15 14 11 16 16 14 15
61 57 52 55 51 46 40 31 18 11 5 4 4 6 6 7 10 16 19 14 6 2 2 2 3 1 2 2 2 9 7 14 7 10 16 13 17 16 17 16 18 19 16 16
52 53 51 50 48 43 32 4 16 15 21 5 3 0 4 7 12 13 8 5 3 2 3 2 2 2 4 3 4 4 12 13 14 16 17 17 18 17 21 19 18 17 16 14
49 44 38 32 27 18 7 5 7 10 10 4 4 3 3 4 4 2 3 3 2 2 2 2 4 4 6 3 9 13 15 15 15 16 16 17 19 14 15 12 15 18 18 17
52 51 48 42 36 23 23 28 14 13 12 4 4 3 2 3 2 3 0 2 0 1 1 1 2 2 3 5 13 11 12 11 12 15 15 17 17 17 16 11 8 9 11 10
37 31 25 18 15 5 4 12 20 24 9 4 3 4 3 3 2 2 2 2 1 1 1 2 3 3 6 10 6 9 10 8 9 8 8 9 8 8 8 8 8 6 8 9
14 12 9 5 5 3 4 8 5 6 4 4 3 1 3 2 2 2 2 1 1 1 3 2 3 5 10 8 3 3 6 7 7 4 8 10 10 9 9 9 8 9 10 11
7 4 4 4 3 3 4 4 4 3 4 3 2 2 3 2 2 2 1 2 1 1 1 2 2 3 1 0 2 2 2 4 7 6 3 4 6 8 9 10 10 8 10 10
11 16 9 3 5 4 6 3 1 4 3 1 2 1 1 2 2 2 1 2 2 4 1 2 2 2 3 5 3 2 2 4 4 3 4 2 3 4 6 7 9 12 14 14
7 7 5 3 4 8 4 2 2 3 3 3 4 2 2 2 1 2 2 2 4 0 2 3 1 4 6 7 7 8 7 10 10 10 6 4 4 4 3 5 9 12 12 12
4 4 6 3 3 3 2 3 4 2 4 5 3 2 2 2 2 1 2 3 2 1 3 4 0 4 6 4 4 7 11 10 11 11 8 6 6 6 8 7 8 9 10 12
4 4 4 3 1 2 1 1 3 2 3 3 3 2 1 2 1 2 2 3 4 5 2 2 1 5 7 8 8 8 9 8 8 11 8 7 10 8 9 9 7 7 7 6
3 4 4 1 2 2 1 1 1 1 2 3 2 3 2 2 2 3 5 3 4 3 2 2 2 5 6 8 8 7 6 6 7 12 12 12 12 9 9 9 7 6 4 1
3 1 2 2 2 3 2 2 2 2 3 2 1 3 5 2 3 4 3 3 3 2 1 1 2 3 5 6 6 6 10 10 12 11 12 12 13 12 7 7 5 3 2 4

GFSNW_925_spd_204.txt.gz
Wind_Speed
39 36 36 36 32 29 29 7 4 23 41 5 3 13 9 8 5 1 3 3 8 16 14 8 7 13 12 5 9 8 7 5 11 16 6 5 10 13 15 12 15 12 14 23
41 38 37 37 35 33 13 4 3 16 11 8 7 6 9 6 7 8 10 11 8 5 4 4 12 10 2 7 13 8 8 5 8 7 10 11 12 14 13 11 7 16 13 11
42 40 40 37 37 36 23 4 4 3 2 2 13 14 11 11 9 7 5 6 5 4 7 13 7 11 7 3 5 10 5 10 13 13 4 5 6 10 13 10 9 12 18 26
44 41 41 38 39 40 27 3 4 5 7 11 11 19 15 19 10 9 14 5 14 14 8 6 8 8 4 3 5 5 7 10 17 19 16 15 18 20 20 20 20 18 24 26
45 44 42 39 39 36 26 6 4 2 4 13 13 13 14 21 20 13 8 13 17 18 14 17 11 11 7 7 11 10 5 4 10 12 17 18 23 22 21 23 23 23 24 30
46 43 41 42 41 40 9 5 5 4 8 14 13 11 17 23 17 8 12 21 13 16 20 4 5 12 8 8 10 10 7 5 5 5 9 10 14 21 25 23 21 20 20 20
47 44 44 43 44 48 24 8 5 4 5 12 17 22 24 24 21 13 6 9 13 5 14 10 5 3 5 8 9 7 6 6 4 4 6 12 4 3 7 13 16 16 17 18
48 45 42 43 44 48 38 15 7 4 4 15 15 19 17 16 10 4 8 5 8 16 10 4 5 4 4 9 12 13 10 5 4 4 10 15 16 17 16 13 12 2 5 6
46 46 45 45 45 43 42 28 17 3 6 11 13 15 11 6 5 5 4 7 17 8 3 4 9 8 6 7 8 16 17 16 7 8 8 10 6 5 3 0 12 8 4 6
46 46 46 43 41 42 44 17 31 3 3 3 12 6 12 9 6 4 4 9 6 4 4 5 5 5 6 8 10 8 8 8 16 14 11 10 7 6 5 9 2 2 7 10
46 44 43 42 42 42 41 18 34 11 3 2 1 5 7 8 8 8 9 6 3 4 6 5 4 5 6 5 5 11 12 9 9 11 14 17 6 8 9 4 6 8 12 13
47 44 42 44 44 45 48 6 20 15 5 3 5 14 10 4 7 9 8 2 10 5 4 3 3 3 4 5 5 5 7 8 6 6 6 5 6 4 11 13 14 16 19 16
49 47 44 43 43 46 37 17 30 16 3 4 4 6 11 14 13 14 5 2 3 4 3 3 2 3 5 6 6 6 7 4 5 5 13 16 16 15 15 14 16 18 13 14
55 47 47 45 45 46 40 26 23 19 5 3 3 5 7 5 7 5 5 12 7 7 4 2 2 3 4 4 3 8 5 6 11 17 19 19 20 16 13 13 14 16 18 18
55 47 43 38 46 42 39 32 19 13 5 5 5 7 10 8 13 17 18 16 10 5 3 2 2 2 3 4 4 9 12 15 11 13 15 13 15 13 14 16 17 18 17 17
46 53 58 58 59 56 37 4 8 15 25 5 4 3 4 5 14 16 11 6 5 3 3 2 2 2 4 3 5 9 10 14 13 14 15 16 18 17 18 19 17 15 13 14
61 55 49 38 25 21 8 7 20 21 14 5 5 5 3 3 3 3 3 5 3 2 2 3 3 5 5 5 10 7 6 10 14 15 16 16 16 16 15 16 15 15 14 14
50 49 46 44 34 24 18 21 19 12 10 4 5 4 5 1 3 3 2 3 2 2 2 1 4 4 5 5 10 6 7 9 11 12 11 12 14 16 16 14 10 12 12 11
46 44 34 27 14 6 6 14 21 21 8 4 3 7 5 2 3 3 2 1 2 2 3 4 3 6 6 11 8 7 7 6 8 9 2 5 7 9 8 7 7 7 7 7
23 9 6 4 4 2 3 3 3 6 5 4 4 1 5 3 3 2 4 1 3 3 3 2 4 7 12 12 10 1 1 4 5 4 3 6 7 8 8 8 7 7 8 9
7 4 4 3 5 4 4 5 5 3 4 3 3 5 8 1 4 3 1 3 3 3 4 3 2 3 2 4 3 4 4 3 1 3 3 4 6 7 8 9 8 8 9 9
11 16 9 4 5 4 6 4 3 4 3 3 5 5 4 3 0 2 3 2 3 2 2 2 3 3 5 6 6 6 5 5 6 9 7 6 5 7 7 8 8 9 11 12
6 5 4 3 3 6 4 4 3 5 5 5 6 5 3 3 1 3 2 3 3 2 2 3 1 3 2 2 2 3 3 4 6 6 9 7 6 7 8 8 10 10 10 10
5 5 6 4 4 4 4 9 8 6 8 8 6 5 3 3 2 2 3 3 3 3 4 5 4 4 1 1 1 1 4 4 4 5 7 7 7 7 10 9 9 9 9 10
5 4 5 5 4 6 6 6 8 8 7 6 5 3 2 3 3 4 3 4 5 5 4 3 4 2 1 1 2 3 4 4 5 6 7 7 9 9 9 10 8 8 9 8
3 5 5 4 7 4 2 4 6 4 5 4 2 3 4 4 3 5 7 3 5 3 3 4 3 1 1 2 3 4 6 7 8 10 11 11 10 9 12 11 9 9 7 6
3 3 4 3 5 5 4 4 5 6 6 3 3 5 3 4 3 4 4 3 2 5 4 2 1 0 1 3 4 4 7 7 9 11 13 14 15 12 13 10 10 7 6 5

GFSNW_925_spd_210.txt.gz
Wind_Speed
22 24 26 28 23 16 21 5 4 26 44 10 5 21 26 14 14 23 19 6 12 13 13 19 21 18 15 8 7 4 8 2 8 17 19 20 20 19 17 11 13 13 15 22
35 27 28 25 27 19 4 3 3 17 24 12 16 15 26 25 23 10 16 17 18 17 19 9 11 15 4 5 5 4 5 4 6 8 11 17 15 18 12 12 14 23 12 17
31 32 33 27 27 26 23 1 4 2 2 2 18 19 15 25 17 25 15 6 4 8 10 13 6 5 1 3 6 10 6 5 13 11 11 5 13 17 18 18 15 17 21 24
35 31 31 31 31 26 18 4 3 3 7 12 4 15 11 18 13 16 17 5 16 16 9 7 8 7 2 2 8 8 8 7 17 23 23 21 23 25 22 20 20 17 27 22
36 35 33 34 31 31 18 3 4 3 1 10 16 9 21 21 18 13 9 16 17 19 23 18 13 12 7 5 8 8 7 4 12 23 20 22 25 27 26 26 25 25 24 31
37 36 36 36 36 33 9 10 5 3 7 8 11 22 19 19 18 14 21 22 18 20 24 17 6 7 8 6 10 12 7 5 4 12 14 16 18 24 28 28 22 17 22 24
40 38 35 36 39 44 25 11 4 3 4 12 16 15 22 24 20 23 18 16 20 2 11 11 8 7 4 9 12 11 7 10 4 6 8 9 14 13 14 17 18 16 20 20
40 38 36 35 41 44 32 28 12 5 3 8 13 19 17 20 22 20 14 6 4 14 5 3 3 2 2 7 12 16 13 9 4 4 10 15 24 10 9 10 15 12 13 11
41 38 37 37 43 44 43 31 28 9 5 9 20 13 13 16 15 3 1 3 12 5 3 3 6 7 5 7 5 15 15 12 8 5 6 8 4 7 5 7 13 13 11 9
41 39 36 39 43 46 42 27 36 9 6 4 2 9 17 14 7 4 4 6 4 2 3 4 5 5 8 7 8 6 10 8 15 14 11 8 11 9 4 7 1 7 5 4
42 40 38 40 43 46 45 35 32 25 3 3 1 4 1 1 4 5 6 4 1 2 5 5 5 5 7 5 10 9 12 8 8 9 6 12 7 11 8 4 5 3 1 5
40 39 37 39 43 46 45 19 33 29 8 2 4 7 7 5 5 5 11 3 6 6 4 5 4 4 5 7 5 13 9 10 6 8 5 2 7 6 3 4 1 6 8 11
40 38 37 39 40 43 45 27 18 13 3 0 1 4 5 5 5 15 5 1 5 5 2 3 2 4 5 6 5 7 8 13 8 4 9 9 7 5 6 7 8 10 12 13
40 37 36 38 39 39 41 24 23 15 3 5 2 1 6 7 7 14 8 11 4 5 3 1 3 3 4 3 2 8 6 7 7 8 12 8 8 10 9 11 8 8 10 11
40 37 37 37 36 35 35 22 24 25 5 2 2 1 4 6 10 17 19 15 9 3 3 2 2 2 3 2 1 6 9 7 6 4 4 4 7 9 10 11 11 12 14 15
43 39 37 38 35 33 14 2 15 19 12 3 3 1 4 4 9 13 12 9 3 2 3 3 2 3 3 3 4 8 6 1 4 7 8 8 6 7 10 13 14 13 14 15
47 42 39 39 36 34 11 3 6 27 18 3 4 1 2 2 3 2 4 5 3 2 2 2 4 4 2 2 4 4 6 3 4 3 4 6 9 7 9 9 11 14 15 17
48 44 42 38 37 25 5 12 20 26 9 2 3 4 3 4 3 3 2 3 3 3 3 3 4 5 3 3 6 6 6 9 3 9 10 10 9 7 8 8 9 10 10 11
49 45 37 23 6 3 6 24 14 14 2 6 5 7 6 5 2 3 2 2 2 1 2 3 4 5 4 5 6 5 4 6 7 6 6 7 7 5 5 7 8 9 9 9
55 31 5 3 5 40 25 9 2 1 2 1 3 6 6 9 7 3 4 3 4 4 5 2 2 4 8 7 7 8 7 7 5 3 6 5 3 4 5 6 5 7 9 9
11 3 4 21 12 5 3 3 3 3 3 2 3 10 10 4 4 5 4 3 3 5 4 6 5 4 6 9 9 7 7 7 7 6 4 1 4 6 6 7 7 7 8 7
14 22 16 5 3 3 4 4 3 6 4 5 8 6 6 5 4 3 2 2 3 3 6 3 2 4 9 9 8 8 7 5 3 2 2 1 1 3 5 7 8 10 11 12
11 5 4 2 3 4 7 7 4 5 7 7 7 7 4 3 3 2 3 3 3 8 3 3 1 10 10 9 8 8 5 4 3 2 0 3 4 5 6 7 10 10 9 11
3 4 5 1 3 4 2 6 5 3 9 11 8 5 3 2 2 3 3 4 3 5 5 4 7 9 9 7 7 7 6 5 2 3 4 2 4 5 9 11 10 8 9 11
3 3 3 2 4 8 8 8 10 10 9 9 6 3 3 4 3 2 3 4 4 5 4 3 8 10 10 8 7 8 6 5 4 5 6 6 8 7 8 10 12 8 10 9
3 4 9 6 9 8 8 9 9 8 6 5 4 4 3 2 3 3 4 6 5 2 5 6 8 9 8 7 6 5 4 1 2 4 4 4 3 5 10 13 14 16 15 13
4 3 4 8 8 6 7 7 6 6 2 3 3 3 2 4 3 5 3 2 6 6 5 4 8 8 7 5 6 5 2 2 4 5 5 7 10 11 12 9 13 12 9 13